User: anonymous   Login
Location: Carnetin
(48.9010°N, 2.7059°E)
Time: 00:21:04
(UTC+00:00)
Language:

Cosmos 1980 Rocket - Orbit

View from above orbital plane
View from above orbital plane
View from above satellite
View from above satellite

Ground track
Ground track

The orbit data is extracted from the following two-line orbital elements,

1 19650U 88102B   22020.59008990 -.00000126  00000-0 -39682-4 0  9999
2 19650  70.9997  85.7820 0013249 157.2503 202.9210 14.15814711713556
Epoch (UTC): 20 January 2022 14:09:43
Eccentricity: 0.0013249
inclination: 70.9997°
perigee height: 830 km
apogee height: 849 km
right ascension of ascending node: 85.7820°
argument of perigee: 157.2503°
revolutions per day: 14.15814711
mean anomaly at epoch: 202.9210°
orbit number at epoch: 71355

The dashed part of the orbit path shows where the satellite is in the earth's shadow,  

DLR